RH
94 95 100 100 100 100 100 93 85 90 95 100 95 77 100 100 100 100 100 100 100 100 100 100 100 100 100 100 100 100 100 100 99 87 100 100 100 100 99 86 90 100 90
100 100 100 100 100 100 100 100 97 75 73 69 77 82 100 100 100 100 100 100 100 100 100 100 100 97 94 100 100 100 100 100 100 92 90 95 96 95 92 100 87 79 91
100 97 86 100 100 100 100 100 99 68 87 64 79 82 71 84 99 98 100 100 100 100 100 100 100 100 100 99 93 93 100 100 98 97 100 99 100 100 100 98 100 82 81
100 100 100 99 90 92 95 98 100 99 100 75 80 77 78 96 93 90 100 100 100 100 100 100 100 88 87 77 71 74 91 98 100 100 100 100 100 100 100 92 84 85 78
42 100 100 100 99 100 100 99 100 88 82 100 79 94 100 100 100 92 99 100 100 100 88 99 100 100 94 83 83 100 100 100 100 100 99 90 85 97 80 73 65 74 83
26 84 100 100 100 100 100 100 100 100 100 100 95 100 100 100 100 100 98 94 100 100 100 97 100 100 97 100 94 96 97 88 98 100 100 100 91 79 85 94 93 94 100
28 27 84 100 100 100 100 100 100 100 100 100 100 100 100 100 100 100 100 100 100 100 100 100 100 100 100 100 100 98 94 92 91 96 96 92 89 90 100 100 100 100 100
31 32 25 27 26 38 56 33 92 100 100 100 100 100 100 100 100 100 100 100 100 98 96 95 98 93 85 83 98 100 100 100 99 100 100 100 100 100 100 100 100 100 100
21 28 34 35 32 28 25 23 28 29 71 100 100 100 99 100 100 100 100 100 100 100 97 99 95 94 99 100 100 99 95 94 98 97 92 96 100 100 100 100 100 100 100
17 25 35 43 39 36 33 26 23 22 23 32 84 99 100 100 100 100 100 100 100 100 98 97 100 99 86 79 73 75 89 82 75 86 98 96 100 100 100 100 100 100 100
36 35 37 40 36 33 30 29 25 23 23 25 27 28 52 58 54 53 67 100 100 100 100 100 100 100 100 99 92 98 96 100 100 100 100 92 98 100 100 90 92 99 79
28 23 25 30 30 29 28 29 29 25 24 24 26 28 30 32 46 38 32 34 39 64 100 100 100 100 100 100 100 95 90 96 100 100 94 86 100 100 51 34 33 36 31
20 20 19 18 22 24 28 30 28 26 24 23 23 27 31 30 30 31 55 72 46 60 54 72 81 88 90 93 94 93 91 89 85 100 100 100 73 33 31 31 31 31 30
20 20 18 17 17 19 23 28 30 28 26 25 25 26 28 27 26 29 33 46 79 99 88 91 92 89 94 87 94 100 100 100 100 100 90 40 30 29 30 30 30 29 29
19 19 19 18 17 17 19 24 29 31 28 27 28 27 26 26 27 30 34 35 34 39 59 73 80 84 91 100 100 100 100 100 72 38 30 29 27 27 28 30 29 30 32
16 15 15 16 18 17 16 16 19 27 32 31 28 28 29 28 28 28 29 30 29 29 30 29 30 31 31 31 32 31 30 30 28 27 28 29 30 31 30 32 32 34 34
20 18 16 15 17 17 16 16 16 16 19 26 32 32 30 29 29 29 28 28 28 28 29 31 31 31 31 30 28 27 26 26 28 29 28 29 29 32 32 32 34 34 35
20 19 19 18 17 16 15 14 13 14 16 17 19 20 24 28 31 31 30 30 30 31 32 32 32 31 30 29 29 27 25 24 23 25 27 28 28 27 28 30 31 31 32
32 33 32 30 25 21 18 18 16 15 15 16 17 17 17 18 19 19 20 20 20 23 24 24 23 24 24 23 22 21 21 22 22 23 23 24 23 24 26 28 28 27 30
29 34 36 35 36 36 32 30 28 24 22 21 18 18 18 18 19 21 22 21 20 21 21 22 22 22 22 22 21 21 20 20 22 24 25 24 21 22 25 27 27 29 30
26 26 26 31 35 37 42 40 33 30 29 28 26 23 21 19 18 18 20 18 18 18 18 18 18 20 20 20 21 20 20 20 21 23 22 22 22 23 24 26 28 31 37
23 25 27 26 25 27 35 39 36 31 31 32 31 28 26 22 20 20 20 18 19 18 18 18 19 21 21 23 25 26 26 26 25 25 25 25 25 25 26 28 31 37 43
25 28 30 31 28 26 27 27 26 27 29 30 30 32 32 32 32 33 31 29 27 24 25 24 28 30 28 30 29 27 26 26 27 29 31 32 32 30 30 37 39 50 59
20 25 30 35 37 35 32 32 30 28 27 26 25 25 25 26 28 32 35 37 37 37 40 39 43 42 40 44 45 45 45 44 45 47 50 50 54 54 50 53 61 72 79
18 25 31 38 44 46 44 42 39 34 34 34 32 29 29 31 30 29 29 30 35 38 40 43 45 51 55 62 63 67 65 67 73 73 71 71 72 74 76 77 81 86 89
12 19 32 44 51 54 56 57 58 57 52 45 42 39 41 43 44 46 48 47 49 50 51 55 60 65 70 75 73 68 71 80 86 87 86 84 82 82 87 90 92 95 97
Wind_Speed
108 102 101 101 102 100 95 97 93 92 87 83 80 66 68 64 53 54 55 56 59 61 64 65 66 68 67 65 64 62 59 57 61 63 60 63 63 62 64 68 68 68 72
104 106 108 103 98 96 99 98 99 97 95 95 90 85 85 80 73 68 66 65 64 66 70 72 70 71 67 66 64 64 60 64 63 64 66 65 67 66 69 71 74 74 76
103 105 104 105 102 100 97 100 100 101 97 90 91 87 88 87 81 77 74 72 68 70 74 68 63 63 63 61 62 64 66 67 72 70 68 65 71 74 76 77 79 80 80
121 109 99 102 104 105 102 97 93 95 95 95 97 95 91 86 82 74 71 68 70 71 70 73 74 72 70 69 68 69 68 69 72 71 69 71 73 74 75 81 81 81 84
116 123 120 101 100 100 103 105 103 98 88 88 85 87 88 88 92 91 82 84 83 80 78 80 77 75 73 64 63 64 64 66 69 73 77 79 81 82 81 82 89 89 89
110 119 120 123 116 102 103 101 102 102 98 97 76 82 85 83 87 87 88 84 87 88 83 77 75 77 75 75 77 78 76 74 78 82 85 85 86 89 90 89 91 92 92
99 108 121 123 125 123 110 104 106 104 100 103 100 98 90 86 90 92 92 94 92 87 88 86 85 85 86 81 79 79 81 83 84 86 86 87 92 94 95 95 96 95 96
94 98 103 106 112 118 119 113 110 108 109 106 102 108 109 103 101 100 102 99 98 98 95 94 100 99 95 90 89 89 90 91 92 93 94 95 96 97 98 100 102 103 102
85 90 93 95 98 105 111 117 116 114 112 115 110 107 111 116 118 115 115 112 112 113 112 112 110 109 109 105 105 106 106 105 104 104 103 101 102 102 105 106 106 107 109
77 79 83 89 95 98 104 109 110 114 114 112 114 117 120 117 116 115 116 118 119 119 118 116 112 111 112 113 113 110 107 107 107 106 106 107 107 109 112 113 113 113 114
74 77 81 87 92 95 96 102 107 107 108 110 111 112 114 115 114 114 114 116 115 114 114 113 112 113 112 114 112 111 110 109 110 111 109 111 112 113 115 116 113 111 111
75 77 80 86 90 90 91 94 97 101 102 103 107 109 108 108 112 115 113 115 113 114 116 117 116 115 116 116 117 118 115 113 112 113 114 112 114 114 113 112 109 107 109
76 77 79 82 85 88 88 89 90 93 96 97 100 105 110 107 110 109 113 116 113 114 113 113 115 117 116 117 118 116 114 115 114 114 115 118 116 114 112 111 110 108 106
77 80 82 83 84 85 86 87 88 90 92 93 96 100 104 104 105 107 110 114 117 119 118 117 118 117 118 118 117 118 118 117 117 120 119 116 114 113 110 109 107 106 105
77 80 83 83 81 81 83 85 88 89 91 92 93 97 99 99 101 104 107 111 112 114 117 122 121 121 122 123 124 123 125 124 121 119 115 113 110 109 106 104 103 101 101
77 77 77 78 79 81 82 82 84 87 89 91 93 94 97 98 100 102 104 106 107 107 110 112 113 115 115 115 116 116 115 115 113 111 108 108 106 106 105 103 104 103 102
74 76 76 77 79 81 81 82 81 81 85 90 93 95 96 97 99 100 101 102 102 103 104 105 107 109 109 109 110 110 110 111 111 112 111 109 106 105 103 101 100 99 96
74 74 74 75 76 78 77 79 80 81 82 83 85 89 93 96 99 100 101 102 102 103 104 105 107 108 110 109 109 108 107 106 104 102 101 99 98 95 93 91 90 88 86
62 65 68 70 72 73 74 77 77 77 78 81 83 84 85 87 88 90 92 94 93 93 94 95 97 97 97 97 98 97 96 95 93 92 91 90 89 87 84 83 82 80 77
59 60 60 60 61 63 64 67 70 73 74 74 77 78 81 82 82 82 83 85 85 86 88 89 90 89 89 90 90 90 90 89 86 85 83 83 83 80 77 76 74 74 73
60 60 60 61 62 62 63 65 67 67 70 71 74 76 77 77 77 77 80 83 83 83 84 84 85 85 85 84 84 84 84 84 82 80 78 77 76 73 72 69 67 66 63
60 59 60 60 60 59 60 63 64 65 66 69 71 72 73 74 74 76 77 79 78 79 79 79 79 79 79 79 78 77 76 75 75 74 71 69 68 67 65 65 63 61 59
62 62 60 59 58 57 56 57 59 62 64 64 65 65 67 68 68 69 71 72 74 74 74 74 72 72 71 71 72 70 67 65 63 60 56 53 52 53 53 53 53 52 52
60 61 61 59 58 56 54 54 55 55 55 57 58 59 60 62 63 65 67 67 66 66 65 65 64 64 62 61 59 58 56 53 50 48 46 43 43 42 43 43 45 45 46
58 58 60 60 59 57 56 54 52 51 51 51 52 52 52 53 54 56 57 58 58 58 57 57 56 54 53 53 51 50 49 48 49 48 47 45 43 41 40 41 43 44 44
55 57 59 60 60 59 57 55 52 50 49 50 50 50 49 49 49 50 50 50 50 50 50 50 49 49 49 51 51 50 49 48 49 50 49 49 48 46 44 43 43 44 44
Wind_Direction
225 224 225 226 229 232 234 236 237 238 240 242 244 241 245 247 250 256 255 256 260 262 267 272 271 274 276 277 276 274 276 276 277 281 282 286 288 289 290 292 296 296 299
228 225 226 225 224 227 233 236 241 241 242 242 244 244 248 252 256 258 257 257 259 261 262 266 270 271 271 276 278 277 274 275 277 280 282 287 288 290 292 294 296 300 301
222 232 228 227 228 227 228 234 239 243 245 243 245 245 247 249 254 257 256 254 257 261 267 263 262 261 265 269 270 272 274 275 277 280 281 286 289 292 293 295 297 299 299
221 222 232 231 232 231 233 232 235 238 243 247 247 250 249 250 252 254 253 254 253 255 258 260 264 271 271 270 272 272 274 276 279 282 286 287 286 289 292 294 296 297 299
225 224 224 230 237 236 238 239 240 242 243 245 246 249 249 250 252 251 253 258 256 257 257 260 265 270 272 271 270 272 276 276 278 281 284 286 286 287 288 290 294 297 299
225 226 227 229 231 239 241 239 240 241 243 244 243 247 248 248 250 255 255 255 255 257 259 260 264 265 265 271 271 271 275 277 279 279 280 284 286 289 292 294 295 298 297
226 228 229 230 232 237 236 242 244 244 242 243 244 245 246 248 251 251 253 254 254 256 258 260 262 265 268 268 268 268 268 272 276 279 280 282 286 290 291 293 294 293 295
226 228 230 233 235 236 238 239 239 245 247 245 243 244 246 245 249 251 252 253 256 259 261 263 269 268 267 269 272 273 274 276 277 279 281 283 285 287 289 290 290 293 294
231 228 229 233 236 238 240 239 239 241 244 246 247 246 247 248 252 255 255 255 256 260 263 264 266 267 266 268 269 270 271 275 277 280 281 283 286 287 288 291 290 291 291
236 235 234 235 236 236 239 240 240 241 243 245 247 249 250 251 252 252 254 255 257 259 261 263 263 265 264 267 270 271 272 274 277 279 280 282 285 286 286 290 289 288 289
243 240 239 237 237 236 238 240 241 242 243 245 246 248 250 252 253 253 253 254 256 257 259 260 261 263 264 267 270 271 273 274 276 278 279 283 285 285 285 287 289 290 290
243 242 240 239 238 237 238 239 242 242 243 245 246 247 249 251 254 255 256 256 257 257 257 258 261 262 264 267 268 271 274 276 276 276 278 283 285 286 287 287 288 289 288
245 247 246 244 242 240 239 240 241 244 244 245 246 247 248 251 254 256 256 258 259 260 261 262 264 265 266 268 270 272 274 276 277 280 281 283 283 284 284 285 287 289 289
246 247 247 247 246 244 243 243 243 244 245 246 247 247 248 251 254 254 255 258 259 260 263 265 266 268 268 271 272 274 275 277 278 279 282 282 282 284 285 284 286 287 288
246 246 247 248 249 249 248 245 245 245 245 246 248 249 249 251 252 253 254 256 259 260 262 264 266 268 269 269 270 272 273 277 278 279 280 280 281 282 283 283 284 284 286
249 249 250 250 250 249 250 249 247 246 247 248 249 249 251 252 253 254 256 257 259 260 262 264 265 266 268 270 271 272 273 274 276 277 277 278 279 281 281 282 283 285 286
251 253 253 253 253 253 252 251 251 250 249 249 249 251 252 253 254 255 257 258 260 261 263 265 266 268 269 270 271 272 273 274 275 276 277 278 279 280 282 282 283 285 286
252 252 253 254 254 254 254 254 253 252 252 251 251 252 253 254 256 257 259 260 262 263 264 265 266 267 269 270 271 273 274 274 275 275 276 278 279 280 281 282 282 284 284
251 254 254 255 255 256 256 256 255 254 254 254 254 253 254 255 256 258 259 260 261 262 263 265 266 267 268 269 271 272 274 275 276 277 278 278 280 281 282 281 281 282 283
246 249 251 254 255 255 256 255 254 255 256 256 256 255 255 255 255 256 258 259 260 261 262 264 266 268 269 269 270 272 274 277 278 279 279 279 281 282 281 281 281 280 280
250 249 247 247 249 251 253 253 251 251 252 254 254 255 255 256 257 258 259 259 260 261 262 263 265 266 267 269 270 271 273 276 278 278 278 279 280 280 280 280 279 279 278
253 251 250 250 249 247 249 253 255 254 252 252 254 255 256 257 258 259 259 260 261 261 262 263 264 266 268 270 272 274 275 276 277 279 278 278 277 277 276 275 275 275 275
252 252 251 251 251 249 249 251 253 254 255 255 255 256 257 259 259 259 260 261 262 263 263 265 268 269 270 272 274 276 277 277 278 278 278 277 275 274 273 274 273 273 273
253 251 251 251 251 251 251 251 251 251 253 254 255 257 258 259 259 259 260 262 264 265 265 266 268 270 272 274 275 277 279 280 282 281 281 281 280 279 277 277 275 274 273
251 252 251 250 250 251 251 251 251 251 253 254 255 255 256 257 258 259 260 261 263 265 266 268 269 270 272 272 274 276 278 279 281 282 282 281 280 280 280 279 277 276 274
250 249 250 249 248 249 250 252 252 252 252 254 255 256 257 258 259 260 261 261 263 264 265 266 268 269 269 271 273 275 276 278 276 277 277 278 279 280 280 280 279 278 277